BAW912 EGLL-LSGG

Flight info

Callsign BAW912
Flight time 1h 10m
Altitude 37000
Route MODMI M185 MID UL612 VEULE DCT PEKIM DCT PILUL DCT PIMUP/N0427F270 DCT PIXIS DCT PIBAT/N0400F230 DCT LUSAR
Aircraft A320/M-SDE3FGHIRWY/LB1

Departure

Time 2026-05-05 15:53
Airport London Heathrow Airport (EGLL)

Arrival

Time 2026-05-05 17:04
Airport Geneva International Airport (LSGG)
Time Latitude Longitude Altitude Speed Heading
2026-05-05 15:34 51.46930 -0.48718 87 ft 0 kts 359°
2026-05-05 15:40 51.46929 -0.48718 87 ft 0 kts 359°
2026-05-05 15:42 51.46917 -0.48717 91 ft 4 kts 355°
2026-05-05 15:42 51.46893 -0.48709 89 ft 4 kts 331°
2026-05-05 15:43 51.46877 -0.48685 90 ft 4 kts 278°
2026-05-05 15:43 51.46876 -0.48677 89 ft 0 kts 270°
2026-05-05 15:44 51.46876 -0.48676 89 ft 0 kts 270°
2026-05-05 15:45 51.46876 -0.48677 89 ft 1 kts 270°
2026-05-05 15:45 51.46876 -0.48726 89 ft 7 kts 265°
2026-05-05 15:45 51.46833 -0.48754 89 ft 8 kts 179°
2026-05-05 15:46 51.46805 -0.48753 87 ft 0 kts 178°
2026-05-05 15:46 51.46796 -0.48752 89 ft 0 kts 178°
2026-05-05 15:47 51.46785 -0.48752 87 ft 5 kts 178°
2026-05-05 15:47 51.46723 -0.48749 87 ft 8 kts 178°
2026-05-05 15:47 51.46657 -0.48750 87 ft 11 kts 181°
2026-05-05 15:48 51.46598 -0.48771 90 ft 3 kts 198°
2026-05-05 15:48 51.46593 -0.48774 89 ft 0 kts 199°
2026-05-05 15:50 51.46587 -0.48778 88 ft 4 kts 200°
2026-05-05 15:50 51.46545 -0.48791 87 ft 7 kts 180°
2026-05-05 15:50 51.46495 -0.48759 88 ft 9 kts 136°
2026-05-05 15:50 51.46477 -0.48663 88 ft 10 kts 91°
2026-05-05 15:51 51.46477 -0.48641 88 ft 0 kts 88°
2026-05-05 15:51 51.46477 -0.48626 88 ft 3 kts 88°
2026-05-05 15:52 51.46478 -0.48582 88 ft 5 kts 88°
2026-05-05 15:52 51.46479 -0.48510 88 ft 7 kts 89°
2026-05-05 15:52 51.46480 -0.48495 88 ft 0 kts 88°
2026-05-05 15:52 51.46482 -0.48378 89 ft 30 kts 90°
2026-05-05 15:53 51.46481 -0.47638 86 ft 101 kts 90°
2026-05-05 15:53 51.46489 -0.46191 88 ft 153 kts 90°
2026-05-05 15:53 51.46477 -0.44317 387 ft 172 kts 91°
2026-05-05 15:53 51.46442 -0.42368 1010 ft 180 kts 92°
2026-05-05 15:54 51.46253 -0.40374 1574 ft 193 kts 109°
2026-05-05 15:54 51.45367 -0.38577 2046 ft 214 kts 142°
2026-05-05 15:54 51.43926 -0.37657 2499 ft 235 kts 164°
2026-05-05 15:54 51.42344 -0.36933 3206 ft 245 kts 161°
2026-05-05 15:55 51.40663 -0.36074 4030 ft 255 kts 160°
2026-05-05 15:55 51.38851 -0.35693 4715 ft 275 kts 186°
2026-05-05 15:55 51.37039 -0.36791 5526 ft 283 kts 209°
2026-05-05 15:55 51.35332 -0.38365 5886 ft 282 kts 211°
2026-05-05 15:56 51.33673 -0.39952 5988 ft 281 kts 211°
2026-05-05 15:56 51.31979 -0.41514 6005 ft 281 kts 210°
2026-05-05 15:56 51.30265 -0.43006 6009 ft 280 kts 208°
2026-05-05 15:56 51.28522 -0.44450 6464 ft 283 kts 207°
2026-05-05 15:57 51.26762 -0.45863 7445 ft 284 kts 207°
2026-05-05 15:57 51.24979 -0.47288 8387 ft 287 kts 207°
2026-05-05 15:57 51.23187 -0.48720 9300 ft 290 kts 207°
2026-05-05 15:57 51.21363 -0.50159 10139 ft 296 kts 206°
2026-05-05 15:58 51.19432 -0.51661 10422 ft 320 kts 206°
2026-05-05 15:58 51.17359 -0.53266 10659 ft 342 kts 206°
2026-05-05 15:58 51.15182 -0.54948 11221 ft 351 kts 206°
2026-05-05 15:58 51.12963 -0.56656 11903 ft 356 kts 205°
2026-05-05 15:59 51.10715 -0.58378 12590 ft 362 kts 204°
2026-05-05 15:59 51.08321 -0.59648 12936 ft 365 kts 190°
2026-05-05 15:59 51.05789 -0.59938 13638 ft 367 kts 176°
2026-05-05 15:59 51.03273 -0.59277 14304 ft 368 kts 162°
2026-05-05 16:00 51.00921 -0.57679 14939 ft 369 kts 148°
2026-05-05 16:00 50.98767 -0.55428 15579 ft 372 kts 144°
2026-05-05 16:00 50.96609 -0.53120 16202 ft 375 kts 145°
2026-05-05 16:00 50.94433 -0.50792 16820 ft 379 kts 145°
2026-05-05 16:01 50.92237 -0.48449 17461 ft 383 kts 145°
2026-05-05 16:01 50.90011 -0.46083 18098 ft 387 kts 145°
2026-05-05 16:01 50.87760 -0.43696 18678 ft 391 kts 146°
2026-05-05 16:01 50.85525 -0.41327 19259 ft 394 kts 146°
2026-05-05 16:02 50.83232 -0.38900 19860 ft 398 kts 146°
2026-05-05 16:02 50.80923 -0.36456 20456 ft 401 kts 146°
2026-05-05 16:02 50.78596 -0.33994 21029 ft 404 kts 146°
2026-05-05 16:02 50.76244 -0.31509 21576 ft 408 kts 146°
2026-05-05 16:03 50.73876 -0.29016 22097 ft 411 kts 146°
2026-05-05 16:03 50.71486 -0.26507 22605 ft 414 kts 146°
2026-05-05 16:03 50.69070 -0.23975 23133 ft 418 kts 146°
2026-05-05 16:03 50.66643 -0.21430 23607 ft 421 kts 146°
2026-05-05 16:04 50.64197 -0.18863 24043 ft 423 kts 146°
2026-05-05 16:04 50.61747 -0.16295 24510 ft 424 kts 146°
2026-05-05 16:04 50.59293 -0.13722 24983 ft 424 kts 146°
2026-05-05 16:04 50.56837 -0.11151 25452 ft 424 kts 146°
2026-05-05 16:05 50.54407 -0.08614 25893 ft 425 kts 147°
2026-05-05 16:05 50.51944 -0.06045 26343 ft 426 kts 147°
2026-05-05 16:05 50.49468 -0.03470 26769 ft 427 kts 147°
2026-05-05 16:05 50.46988 -0.00894 27188 ft 428 kts 147°
2026-05-05 16:06 50.44498 0.01688 27608 ft 430 kts 147°
2026-05-05 16:06 50.42001 0.04276 28014 ft 431 kts 147°
2026-05-05 16:06 50.39492 0.06871 28409 ft 433 kts 147°
2026-05-05 16:06 50.36977 0.09473 28790 ft 434 kts 147°
2026-05-05 16:07 50.34451 0.12087 29167 ft 436 kts 147°
2026-05-05 16:07 50.31916 0.14701 29540 ft 437 kts 147°
2026-05-05 16:07 50.29377 0.17316 29990 ft 437 kts 147°
2026-05-05 16:07 50.26844 0.19919 30445 ft 434 kts 147°
2026-05-05 16:08 50.24318 0.22514 30891 ft 433 kts 147°
2026-05-05 16:08 50.21804 0.25089 31330 ft 432 kts 147°
2026-05-05 16:08 50.19291 0.27662 31765 ft 431 kts 147°
2026-05-05 16:08 50.16819 0.30201 32202 ft 430 kts 147°
2026-05-05 16:09 50.14293 0.32801 32646 ft 429 kts 147°
2026-05-05 16:09 50.11837 0.35324 33089 ft 428 kts 147°
2026-05-05 16:09 50.09352 0.37873 33533 ft 427 kts 147°
2026-05-05 16:09 50.06876 0.40413 33970 ft 426 kts 147°
2026-05-05 16:10 50.04406 0.42947 34342 ft 426 kts 147°
2026-05-05 16:10 50.03005 0.44382 34523 ft 426 kts 148°
2026-05-05 16:10 50.00029 0.47413 34902 ft 426 kts 148°
2026-05-05 16:10 49.97542 0.49937 35207 ft 427 kts 148°
2026-05-05 16:11 49.95057 0.52461 35512 ft 427 kts 148°
2026-05-05 16:11 49.88978 0.58639 36218 ft 429 kts 148°
2026-05-05 16:12 49.86491 0.61187 36490 ft 429 kts 145°
2026-05-05 16:12 49.82000 0.67358 36882 ft 435 kts 138°
2026-05-05 16:13 49.75268 0.77147 36889 ft 446 kts 138°
2026-05-05 16:13 49.70722 0.83704 36883 ft 447 kts 138°
2026-05-05 16:14 49.61658 0.96793 36868 ft 447 kts 138°
2026-05-05 16:15 49.52545 1.09877 36871 ft 448 kts 138°
2026-05-05 16:16 49.43409 1.22950 36872 ft 449 kts 138°
2026-05-05 16:17 49.36539 1.32723 36885 ft 449 kts 138°
2026-05-05 16:18 49.29688 1.42414 36880 ft 449 kts 139°
2026-05-05 16:19 49.22795 1.52131 36872 ft 449 kts 139°
2026-05-05 16:19 49.15897 1.61818 36862 ft 449 kts 139°
2026-05-05 16:20 49.06689 1.74695 36859 ft 449 kts 139°
2026-05-05 16:22 48.95146 1.90723 36852 ft 449 kts 139°
2026-05-05 16:23 48.85903 2.03510 36853 ft 450 kts 139°
2026-05-05 16:23 48.78946 2.13070 36849 ft 450 kts 139°
2026-05-05 16:24 48.74296 2.19445 36847 ft 450 kts 139°
2026-05-05 16:25 48.67317 2.28982 36849 ft 451 kts 139°
2026-05-05 16:25 48.60338 2.38460 36851 ft 451 kts 140°
2026-05-05 16:26 48.51000 2.51117 36842 ft 451 kts 140°
2026-05-05 16:27 48.46319 2.57441 36845 ft 452 kts 140°
2026-05-05 16:27 48.41628 2.63744 36840 ft 452 kts 140°
2026-05-05 16:28 48.36934 2.70047 36839 ft 452 kts 140°
2026-05-05 16:28 48.32236 2.76339 36836 ft 453 kts 140°
2026-05-05 16:29 48.27524 2.82622 36822 ft 452 kts 141°
2026-05-05 16:29 48.22659 2.88569 36819 ft 451 kts 144°
2026-05-05 16:30 48.17645 2.94208 36821 ft 451 kts 146°
2026-05-05 16:30 48.12625 2.99840 36824 ft 451 kts 145°
2026-05-05 16:31 48.07501 3.05209 36826 ft 448 kts 154°
2026-05-05 16:31 48.01819 3.08952 36825 ft 446 kts 159°
2026-05-05 16:32 47.96095 3.12543 36834 ft 446 kts 159°
2026-05-05 16:32 47.90411 3.16096 36834 ft 446 kts 159°
2026-05-05 16:33 47.84694 3.19681 36834 ft 446 kts 159°
2026-05-05 16:33 47.78973 3.23255 36836 ft 446 kts 160°
2026-05-05 16:34 47.73241 3.26809 36836 ft 446 kts 160°
2026-05-05 16:34 47.67522 3.30380 36840 ft 446 kts 160°
2026-05-05 16:35 47.61796 3.33937 36844 ft 446 kts 160°
2026-05-05 16:35 47.56067 3.37483 36845 ft 446 kts 160°
2026-05-05 16:36 47.50336 3.41018 36847 ft 446 kts 160°
2026-05-05 16:36 47.44613 3.44554 36848 ft 446 kts 160°
2026-05-05 16:37 47.38904 3.48087 36218 ft 443 kts 160°
2026-05-05 16:37 47.36072 3.49830 35506 ft 442 kts 160°
2026-05-05 16:37 47.33235 3.51573 34800 ft 440 kts 160°
2026-05-05 16:38 47.30418 3.53298 34112 ft 438 kts 160°
2026-05-05 16:38 47.27602 3.55022 33337 ft 437 kts 160°
2026-05-05 16:38 47.24800 3.56733 32458 ft 437 kts 160°
2026-05-05 16:38 47.21995 3.58442 31536 ft 437 kts 160°
2026-05-05 16:39 47.19184 3.60150 30589 ft 438 kts 159°
2026-05-05 16:39 47.16358 3.61867 29586 ft 439 kts 159°
2026-05-05 16:39 47.13531 3.63587 29038 ft 441 kts 159°
2026-05-05 16:39 47.10693 3.65313 28816 ft 443 kts 159°
2026-05-05 16:40 47.04977 3.68779 28851 ft 445 kts 159°
2026-05-05 16:40 46.99293 3.72368 28700 ft 444 kts 153°
2026-05-05 16:41 46.96737 3.74835 28267 ft 434 kts 143°
2026-05-05 16:41 46.94586 3.77845 27992 ft 423 kts 134°
2026-05-05 16:41 46.92850 3.81240 27772 ft 413 kts 125°
2026-05-05 16:41 46.91530 3.84931 27491 ft 406 kts 116°
2026-05-05 16:42 46.90529 3.88694 27189 ft 398 kts 115°
2026-05-05 16:42 46.89527 3.92475 26707 ft 398 kts 115°
2026-05-05 16:42 46.88499 3.96322 26571 ft 413 kts 115°
2026-05-05 16:42 46.87441 4.00268 26448 ft 419 kts 115°
2026-05-05 16:43 46.86382 4.04233 26316 ft 420 kts 115°
2026-05-05 16:43 46.85326 4.08202 26187 ft 420 kts 115°
2026-05-05 16:43 46.84266 4.12186 26054 ft 419 kts 115°
2026-05-05 16:43 46.83206 4.16157 25926 ft 419 kts 115°
2026-05-05 16:44 46.82147 4.20113 25799 ft 418 kts 115°
2026-05-05 16:44 46.81092 4.24064 25676 ft 418 kts 114°
2026-05-05 16:44 46.80266 4.28151 25548 ft 422 kts 106°
2026-05-05 16:44 46.79670 4.32338 25417 ft 421 kts 105°
2026-05-05 16:45 46.79067 4.36522 25295 ft 421 kts 106°
2026-05-05 16:45 46.78468 4.40645 25172 ft 420 kts 106°
2026-05-05 16:45 46.77855 4.44812 25047 ft 420 kts 106°
2026-05-05 16:45 46.77230 4.49028 24925 ft 419 kts 106°
2026-05-05 16:46 46.76616 4.53174 24800 ft 419 kts 106°
2026-05-05 16:46 46.76005 4.57319 24678 ft 418 kts 106°
2026-05-05 16:46 46.75392 4.61463 24556 ft 418 kts 106°
2026-05-05 16:46 46.74789 4.65544 24434 ft 417 kts 106°
2026-05-05 16:47 46.74177 4.69675 24312 ft 416 kts 107°
2026-05-05 16:47 46.73564 4.73788 24191 ft 416 kts 107°
2026-05-05 16:47 46.72945 4.77923 24078 ft 421 kts 107°
2026-05-05 16:47 46.72315 4.82117 23943 ft 426 kts 107°
2026-05-05 16:48 46.71683 4.86341 23756 ft 427 kts 107°
2026-05-05 16:48 46.71052 4.90571 23572 ft 426 kts 107°
2026-05-05 16:48 46.70419 4.94789 23373 ft 425 kts 107°
2026-05-05 16:48 46.69784 4.98994 23194 ft 424 kts 107°
2026-05-05 16:49 46.69146 5.03187 23088 ft 424 kts 107°
2026-05-05 16:49 46.68507 5.07376 22898 ft 424 kts 107°
2026-05-05 16:49 46.67868 5.11562 22876 ft 423 kts 107°
2026-05-05 16:49 46.67230 5.15744 22886 ft 424 kts 107°
2026-05-05 16:50 46.66590 5.19926 22885 ft 424 kts 107°
2026-05-05 16:50 46.65952 5.24122 22891 ft 424 kts 107°
2026-05-05 16:50 46.65320 5.28303 22758 ft 422 kts 107°
2026-05-05 16:50 46.64697 5.32460 22088 ft 419 kts 107°
2026-05-05 16:51 46.64077 5.36582 21450 ft 416 kts 107°
2026-05-05 16:51 46.63455 5.40683 20851 ft 414 kts 107°
2026-05-05 16:51 46.62833 5.44755 20290 ft 411 kts 107°
2026-05-05 16:51 46.62215 5.48805 19782 ft 410 kts 107°
2026-05-05 16:52 46.61592 5.52837 19267 ft 407 kts 107°
2026-05-05 16:52 46.60965 5.56848 18739 ft 405 kts 107°
2026-05-05 16:52 46.60341 5.60834 18203 ft 403 kts 107°
2026-05-05 16:52 46.59718 5.64792 17597 ft 401 kts 106°
2026-05-05 16:53 46.59100 5.68731 17010 ft 397 kts 106°
2026-05-05 16:53 46.58489 5.72623 16453 ft 394 kts 106°
2026-05-05 16:53 46.57736 5.76415 15887 ft 387 kts 115°
2026-05-05 16:53 46.56546 5.79874 15308 ft 379 kts 125°
2026-05-05 16:54 46.54975 5.82900 14756 ft 372 kts 135°
2026-05-05 16:54 46.53098 5.85434 14189 ft 366 kts 145°
2026-05-05 16:54 46.51029 5.87556 13616 ft 363 kts 148°
2026-05-05 16:54 46.48959 5.89635 12989 ft 361 kts 148°
2026-05-05 16:55 46.46905 5.91699 12385 ft 358 kts 148°
2026-05-05 16:55 46.44871 5.93740 11812 ft 355 kts 148°
2026-05-05 16:55 46.42846 5.95768 11251 ft 352 kts 148°
2026-05-05 16:55 46.40838 5.97774 10701 ft 349 kts 148°
2026-05-05 16:56 46.38861 5.99794 10167 ft 347 kts 143°
2026-05-05 16:56 46.37295 6.02445 9647 ft 349 kts 121°
2026-05-05 16:56 46.36543 6.05756 9266 ft 346 kts 97°
2026-05-05 16:56 46.36731 6.09153 9145 ft 336 kts 75°
2026-05-05 16:57 46.37758 6.12111 9001 ft 324 kts 55°
2026-05-05 16:57 46.39070 6.14705 8689 ft 318 kts 53°
2026-05-05 16:57 46.40440 6.17317 7746 ft 334 kts 53°
2026-05-05 16:57 46.41863 6.19977 7209 ft 337 kts 53°
2026-05-05 16:58 46.43283 6.22600 7031 ft 325 kts 53°
2026-05-05 16:58 46.44467 6.25282 6975 ft 307 kts 71°
2026-05-05 16:58 46.44840 6.28223 6751 ft 294 kts 96°
2026-05-05 16:58 46.44342 6.31034 6298 ft 286 kts 119°
2026-05-05 16:59 46.43296 6.33376 5834 ft 269 kts 140°
2026-05-05 16:59 46.42284 6.34397 5525 ft 258 kts 159°
2026-05-05 16:59 46.40579 6.34836 5070 ft 246 kts 189°
2026-05-05 16:59 46.39086 6.33805 4615 ft 239 kts 224°
2026-05-05 17:00 46.38027 6.31976 4158 ft 234 kts 228°
2026-05-05 17:00 46.36961 6.30292 3963 ft 218 kts 225°
2026-05-05 17:00 46.35924 6.28752 3978 ft 211 kts 224°
2026-05-05 17:00 46.34926 6.27279 4005 ft 201 kts 224°
2026-05-05 17:01 46.33966 6.25862 3805 ft 198 kts 224°
2026-05-05 17:01 46.32987 6.24418 3535 ft 201 kts 224°
2026-05-05 17:01 46.32044 6.23025 3287 ft 185 kts 224°
2026-05-05 17:01 46.31149 6.21705 3050 ft 183 kts 225°
2026-05-05 17:02 46.30298 6.20449 2823 ft 165 kts 225°
2026-05-05 17:02 46.29534 6.19324 2632 ft 148 kts 225°
2026-05-05 17:02 46.28836 6.18296 2443 ft 140 kts 224°
2026-05-05 17:02 46.28146 6.17280 2267 ft 140 kts 225°
2026-05-05 17:03 46.27478 6.16285 2103 ft 136 kts 225°
2026-05-05 17:03 46.26827 6.15306 1934 ft 134 kts 225°
2026-05-05 17:03 46.26159 6.14364 1737 ft 134 kts 224°
2026-05-05 17:03 46.25501 6.13407 1570 ft 134 kts 226°
2026-05-05 17:04 46.24856 6.12440 1383 ft 133 kts 227°
2026-05-05 17:04 46.24305 6.11626 1384 ft 89 kts 225°
2026-05-05 17:04 46.23995 6.11166 1408 ft 39 kts 225°
2026-05-05 17:04 46.23862 6.11070 1398 ft 18 kts 191°
2026-05-05 17:05 46.23758 6.11087 1398 ft 8 kts 169°
2026-05-05 17:05 46.23709 6.11084 1400 ft 9 kts 209°
2026-05-05 17:05 46.23654 6.11006 1400 ft 13 kts 225°
2026-05-05 17:05 46.23587 6.10907 1403 ft 14 kts 226°
2026-05-05 17:06 46.23512 6.10796 1399 ft 17 kts 226°
2026-05-05 17:06 46.23428 6.10674 1411 ft 17 kts 225°
2026-05-05 17:06 46.23341 6.10558 1409 ft 18 kts 226°
2026-05-05 17:06 46.23252 6.10426 1409 ft 18 kts 225°
2026-05-05 17:07 46.23166 6.10319 1415 ft 11 kts 180°
2026-05-05 17:07 46.23110 6.10408 1410 ft 14 kts 126°
2026-05-05 17:07 46.23039 6.10467 1406 ft 6 kts 138°
2026-05-05 17:07 46.23047 6.10498 1406 ft 4 kts 58°
2026-05-05 17:08 46.23073 6.10537 1413 ft 6 kts 44°
2026-05-05 17:08 46.23106 6.10582 1408 ft 7 kts 44°
2026-05-05 17:08 46.23141 6.10582 1410 ft 6 kts 305°
2026-05-05 17:08 46.23151 6.10556 1407 ft 0 kts 300°
2026-05-05 17:09 46.23151 6.10557 1407 ft 0 kts 300°